To NAV CANADA Home Page Login to a new session Search on AWWS site Feedback and Comments Disclaimer Vers la page française équivalente Tips FAQ What's new on the site To the Forecasts and Observations / NOTAM section To "File a Flight Plan" website Publications and other links Update of the User's profile FIC Telephone Numbers My Weather Data Folder Route Weather Data Regional Weather Data Local Weather Data To the Forecasts and Observations / NOTAM section
Request Generated 01/17/2017 at 04:51:18 UTC . Weather information available at that time is displayed.

METAR/TAF

KINDERSLEY/KINDERSLEY REGIONAL/SK    

METAR CYKY 170400Z 18011KT 15SM FEW090 SCT240 M06/M09 A2968 RMK
AC1CI3 SLP097=
METAR CYKY 170300Z 19011KT 15SM FEW090 SCT240 M07/M09 A2972 RMK
AC1CI2 SLP112=
METAR CYKY 170200Z 17012KT 15SM FEW090 SCT250 M06/M09 A2976 RMK
AC1CI2 PRESFR SLP124=

CYKY - No TAF is issued for this station

Your time UTC time
Weather data provided by Environment Canada and NAV CANADA